[[{"header":{"parameterUnit":"m.s-1","parameterCategory":2,"la1":30.2991,"la2":30.254,"lo1":-89.0895,"lo2":-89.0444,"dy":0.0017,"dx":0.0017,"nx":28,"ny":28,"refTime":"2023-08-12T09:00:00:Z","depth":"0","parameterNumber":2,"parameterNumberName":"U-component_of_CURRENTS"},"data":[0,0,0,0,0,0,0,0,0,0,0,0,0,0,0,0,0,0,0,0,0,0,0,0,0,0,0,0,0,0,0,0,0,0,0,0,0,0,0,0,0,0,0,0,0,0,0,0,0,0,0,0,0,0,0,0,0,0,0.1227,0.1227,0,0.1264,0.1265,0.1265,0.1227,0.1226,0.1224,0.1223,0.1233,0.1234,0.1236,0,0,0,0,0,0,0,0,0,0,0,0,0,0.1149,0.1151,0.1227,0.1227,0.1228,0.1264,0.1265,0.1265,0.1228,0.1226,0.1224,0.1222,0.1232,0.1234,0.1236,0,0,0,0,0,0,0,0,0,0,0,0,0,0.1185,0.1151,0.1227,0.1213,0.1212,0.1264,0.1265,0.1265,0.1228,0.1226,0.1224,0.1221,0.1232,0.1234,0.1237,0.1297,0,0,0.1244,0.1245,0,0,0,0,0,0,0,0,0.1183,0.1187,0.1215,0.1214,0.1213,0.1239,0.1241,0.1274,0.1229,0.1222,0.1223,0.122,0.1234,0.1236,0.1249,0.1297,0.1297,0.1244,0.1246,0.1247,0.1248,0,0,0,0,0,0,0,0.118,0.1186,0.1242,0.1215,0.1215,0.1214,0.1217,0.1247,0.124,0.1223,0.122,0.1225,0.1233,0.1246,0.1248,0.1298,0.1244,0.1246,0.1248,0.1249,0.1445,0.1448,0,0,0,0,0,0,0.1177,0.1184,0.1241,0.1243,0.1192,0.1217,0.122,0.1233,0.124,0.1239,0.1226,0.1223,0.1243,0.1246,0.1249,0.1362,0.1247,0.1249,0.1251,0.1441,0.1445,0.1449,0,0,0,0,0,0,0.1175,0.1182,0.1239,0.1213,0.122,0.1221,0.1236,0.1235,0.1252,0.1243,0.1241,0.1245,0.1242,0.1245,0.1301,0.136,0.125,0.1253,0.1437,0.1442,0.1447,0.1562,0,0,0,0,0,0,0.1173,0.1181,0.1204,0.1213,0.1222,0.1286,0.1238,0.1237,0.1258,0.1254,0.1259,0.1257,0.124,0.1297,0.1303,0.1361,0.1254,0.1432,0.1439,0.1446,0.1553,0.157,0.1585,0,0,0,0,0,0.117,0.1215,0.1206,0.1213,0.1249,0.1288,0.1294,0.1285,0.1261,0.1289,0.1296,0.1257,0.1345,0.1303,0.1309,0.1369,0.1428,0.1437,0.1445,0.1546,0.1567,0.1585,0,0,0,0,0,0,0.1207,0.1216,0.1205,0.1254,0.1273,0.1282,0.1313,0.1302,0.1331,0.1325,0.1305,0.1307,0.1375,0.1368,0.1321,0.1449,0.1382,0.1392,0.1456,0.1476,0.1492,0.1501,0.1257,0,0,0,0,0,0.1223,0.1252,0.126,0.1304,0.1314,0.1315,0.1333,0.1327,0.1345,0.1354,0.1356,0.1375,0.1418,0.144,0.1465,0.1542,0.158,0.1587,0.1603,0.1616,0.1632,0.1751,0.1779,0.1477,0.1477,0.1477,0,0,0.125,0.126,0.1277,0.1312,0.1324,0.1362,0.1322,0.1358,0.1395,0.1354,0.1413,0.1427,0.1451,0.153,0.1561,0.1529,0.1731,0.1627,0.1638,0.1646,0.1763,0.1792,0.1818,0.1483,0.1481,0.1481,0,0,0.1315,0.1326,0.1366,0.1385,0.1409,0.1414,0.1428,0.1444,0.1457,0.152,0.1505,0.1564,0.1613,0.1652,0.1677,0.1805,0.1807,0.181,0.1904,0.2021,0.2046,0.2069,0.2187,0.2219,0.1823,0.1823,0.1824,0,0.1344,0.1392,0.1389,0.1431,0.1455,0.144,0.1489,0.1515,0.1548,0.1585,0.1552,0.1673,0.1679,0.1802,0.1841,0.1841,0.1906,0.1823,0.2042,0.2065,0.2086,0.22,0.2235,0.183,0.1829,0.1829,0.1828,0,0.1429,0.1468,0.1499,0.1538,0.1571,0.1613,0.1633,0.1674,0.1683,0.1708,0.1817,0.1844,0.1918,0.1937,0.1926,0.2089,0.2087,0.2042,0.1988,0.2123,0.2236,0.2269,0.1839,0.1837,0.1835,0.1833,0,0,0.1491,0.1543,0.1555,0.1581,0.1625,0.1659,0.1736,0.1808,0.1867,0.1915,0.2019,0.2099,0.2107,0.2139,0.2144,0.2241,0.2449,0.2212,0.2215,0.2321,0.273,0.2808,0.2851,0.2444,0.245,0.2455,0.2758,0,0.1557,0.1636,0.1655,0.1739,0.1779,0.1798,0.187,0.1933,0.1983,0.2079,0.2143,0.2231,0.2187,0.2233,0.2332,0.2403,0.2538,0.2372,0.2588,0.2596,0.2642,0.2893,0.2956,0.3238,0.279,0.2796,0.28,0,0.1636,0.1675,0.1757,0.1825,0.1847,0.1896,0.2002,0.2066,0.2189,0.2234,0.2341,0.2376,0.2531,0.2462,0.2704,0.2601,0.2694,0.2749,0.2761,0.2815,0.2738,0.3026,0.3315,0.3202,0.2851,0.2847,0.2843,0,0.1672,0.1752,0.1814,0.1836,0.1912,0.1963,0.2011,0.2118,0.219,0.2338,0.2418,0.2571,0.2666,0.2803,0.2915,0.2832,0.3184,0.3076,0.3252,0.3256,0.3344,0.3348,0.3542,0.3298,0.3298,0.3297,0.3296,0,0.1733,0.1785,0.1828,0.1861,0.1946,0.1989,0.2097,0.2166,0.2292,0.2401,0.2496,0.2625,0.2758,0.2948,0.3026,0.328,0.3292,0.3348,0.3375,0.3389,0.3393,0.3317,0.3205,0.3308,0.3306,0.3303,0.3301,0,0.1767,0.1796,0.1864,0.1935,0.1961,0.202,0.2124,0.2196,0.2316,0.2471,0.2529,0.2725,0.2975,0.3136,0.3382,0.3447,0.3607,0.3729,0.3743,0.3767,0.3782,0.3673,0.3796,0.3703,0.3989,0.3994,0.3997,0,0.1788,0.1824,0.19,0.1925,0.1954,0.2034,0.2086,0.2199,0.2274,0.2527,0.2605,0.2898,0.3095,0.3518,0.3733,0.4,0.3802,0.4176,0.4027,0.3882,0.3779,0.3551,0.3441,0.42,0.4205,0.4209,0.4212,0,0.1809,0.1833,0.187,0.1926,0.1973,0.2044,0.2124,0.219,0.2338,0.2487,0.2704,0.2895,0.3358,0.3672,0.405,0.4211,0.4032,0.4266,0.4135,0.4018,0.3769,0.3657,0.3871,0.4249,0.4245,0.4242,0.424,0.4239,0.1798,0.1824,0.1856,0.1909,0.1956,0.2017,0.2064,0.2166,0.2302,0.2511,0.2712,0.3016,0.3522,0.4076,0.4228,0.4526,0.4295,0.4467,0.4372,0.4171,0.4015,0.4317,0.4688,0.4687,0.4686,0.4685,0.4684,0,0.1758,0.1786,0.183,0.1876,0.1897,0.1954,0.2052,0.21,0.2225,0.2501,0.2708,0.327,0.3739,0.416,0.4662,0.4628,0.4441,0.452,0.42,0.4099,0.445,0.4389,0.469,0.469,0.469,0.469,0.469,0.469,0.173,0.1743,0.1771,0.1784,0.1816,0.1852,0.1895,0.2007,0.2192,0.252,0.2835,0.3107,0.3705,0.4371,0.4664,0.463,0.4243,0.4184,0.3972,0.4203,0.4187,0.4171,0.4089,0.4321,0.4321,0.3572,0.3566,0.3562]},{"header":{"parameterUnit":"m.s-1","parameterCategory":2,"la1":30.2991,"la2":30.254,"lo1":-89.0895,"lo2":-89.0444,"dy":0.0017,"dx":0.0017,"nx":28,"ny":28,"refTime":"2023-08-12T09:00:00:Z","depth":"0","parameterNumber":3,"parameterNumberName":"V-component_of_CURRENTS"},"data":[0,0,0,0,0,0,0,0,0,0,0,0,0,0,0,0,0,0,0,0,0,0,0,0,0,0,0,0,0,0,0,0,0,0,0,0,0,0,0,0,0,0,0,0,0,0,0,0,0,0,0,0,0,0,0,0,0,0,-0.0437,-0.0438,0,-0.0516,-0.0518,-0.0519,-0.0628,-0.063,-0.0631,-0.0633,-0.0848,-0.0852,-0.0857,0,0,0,0,0,0,0,0,0,0,0,0,0,-0.0439,-0.0438,-0.0437,-0.0438,-0.0438,-0.0516,-0.0518,-0.0519,-0.0628,-0.063,-0.0632,-0.0634,-0.0847,-0.0852,-0.0857,0,0,0,0,0,0,0,0,0,0,0,0,0,-0.0473,-0.0438,-0.0437,-0.05,-0.0506,-0.0516,-0.0518,-0.0519,-0.0628,-0.063,-0.0632,-0.0634,-0.0845,-0.0851,-0.0858,-0.0851,0,0,-0.0877,-0.088,0,0,0,0,0,0,0,0,-0.0471,-0.0473,-0.049,-0.0495,-0.0502,-0.0562,-0.0597,-0.0636,-0.0627,-0.0585,-0.0633,-0.0636,-0.0761,-0.0775,-0.0787,-0.0861,-0.087,-0.0878,-0.0882,-0.0885,-0.0887,0,0,0,0,0,0,0,-0.0468,-0.0471,-0.0472,-0.049,-0.0498,-0.0544,-0.0551,-0.0605,-0.0664,-0.0589,-0.0596,-0.0599,-0.0767,-0.0781,-0.0794,-0.0874,-0.0878,-0.0884,-0.0888,-0.089,-0.0971,-0.097,0,0,0,0,0,0,-0.0446,-0.0468,-0.0469,-0.0474,-0.0488,-0.0541,-0.055,-0.0543,-0.0661,-0.0679,-0.0597,-0.0604,-0.0768,-0.0786,-0.0802,-0.079,-0.0885,-0.0891,-0.0894,-0.0973,-0.0971,-0.0969,0,0,0,0,0,0,-0.0445,-0.0445,-0.0466,-0.0471,-0.0477,-0.0538,-0.053,-0.0543,-0.0563,-0.0665,-0.0687,-0.0603,-0.0771,-0.0793,-0.0833,-0.08,-0.0894,-0.0899,-0.0975,-0.0972,-0.097,-0.0775,0,0,0,0,0,0,-0.0445,-0.0444,-0.043,-0.0469,-0.0475,-0.0454,-0.0528,-0.0543,-0.0559,-0.0569,-0.0677,-0.0699,-0.0775,-0.0822,-0.0839,-0.0811,-0.0905,-0.0977,-0.0974,-0.0971,-0.0783,-0.0766,-0.0751,0,0,0,0,0,-0.0445,-0.0403,-0.0428,-0.0428,-0.0454,-0.0452,-0.0459,-0.0514,-0.0556,-0.0545,-0.0617,-0.0696,-0.0815,-0.0825,-0.0846,-0.0819,-0.0979,-0.0975,-0.0971,-0.079,-0.0769,-0.0751,0,0,0,0,0,0,-0.0385,-0.0411,-0.044,-0.0406,-0.0423,-0.0469,-0.0459,-0.05,-0.0545,-0.0562,-0.067,-0.0694,-0.0722,-0.0792,-0.0801,-0.0833,-0.0912,-0.0912,-0.0767,-0.0748,-0.0732,-0.0691,-0.091,0,0,0,0,0,-0.0364,-0.0348,-0.038,-0.0351,-0.0356,-0.0407,-0.0415,-0.0449,-0.0493,-0.0516,-0.0587,-0.0663,-0.0717,-0.0749,-0.0811,-0.082,-0.0864,-0.0819,-0.0802,-0.0788,-0.0768,-0.08,-0.0784,-0.0956,-0.0956,-0.0956,0,0,-0.0332,-0.0343,-0.0335,-0.0339,-0.036,-0.0345,-0.0418,-0.0412,-0.04,-0.0532,-0.0537,-0.061,-0.0708,-0.0721,-0.0739,-0.0777,-0.0756,-0.0783,-0.077,-0.0758,-0.0794,-0.0777,-0.0762,-0.0954,-0.0954,-0.0955,0,0,-0.0255,-0.0269,-0.0235,-0.0243,-0.026,-0.0286,-0.0279,-0.0316,-0.0333,-0.0343,-0.0434,-0.0471,-0.0561,-0.0606,-0.0647,-0.0575,-0.067,-0.061,-0.0492,-0.0522,-0.0507,-0.0495,-0.0496,-0.0486,-0.0599,-0.0598,-0.0598,0,-0.0217,-0.0184,-0.0221,-0.0194,-0.0189,-0.0253,-0.0216,-0.023,-0.0273,-0.027,-0.0323,-0.0416,-0.0499,-0.0506,-0.0484,-0.0536,-0.0565,-0.0555,-0.0497,-0.0487,-0.0478,-0.0482,-0.0474,-0.0589,-0.059,-0.0591,-0.0592,0,-0.0126,-0.0103,-0.0077,-0.0071,-0.0067,-0.0039,-0.0067,-0.0061,-0.0097,-0.0119,-0.0129,-0.0223,-0.0282,-0.0308,-0.0379,-0.0352,-0.0395,-0.0472,-0.0538,-0.0448,-0.0459,-0.0453,-0.0574,-0.0578,-0.0581,-0.0583,0,0,-0.0035,-0.0018,-0.001,0.0008,-0.0002,0.0016,0.005,0.0067,0.0099,0.0055,0.0092,0.0012,-0.0044,-0.0093,-0.0179,-0.0196,-0.0153,-0.0294,-0.03,-0.0277,-0.0194,-0.0203,-0.0198,-0.0225,-0.0223,-0.0222,-0.0214,0,0.0044,0.0121,0.0105,0.0176,0.0209,0.0171,0.0212,0.0218,0.0206,0.0231,0.0161,0.015,0.0039,0.0017,-0.0015,-0.0127,-0.0134,-0.0146,-0.03,-0.0304,-0.031,-0.0191,-0.0157,-0.0145,-0.0209,-0.0208,-0.0208,0,0.0132,0.0169,0.0255,0.0294,0.0307,0.0342,0.039,0.0418,0.0433,0.0423,0.0405,0.0338,0.0314,0.0196,0.0089,0.0083,-0.0031,-0.0114,-0.0118,-0.0191,-0.0302,-0.0256,-0.0134,-0.0371,-0.02,-0.0201,-0.0201,0,0.021,0.0273,0.0346,0.0359,0.0397,0.0436,0.0458,0.0484,0.0525,0.0551,0.058,0.0519,0.0492,0.0361,0.0184,0.0134,0.0069,-0.0035,-0.0137,-0.0139,-0.0171,-0.0178,-0.0284,-0.0098,-0.0098,-0.0098,-0.0098,0,0.0295,0.0353,0.0391,0.0431,0.0524,0.052,0.0616,0.0631,0.0674,0.0745,0.0681,0.0717,0.0527,0.0454,0.0272,0.0114,0.0131,-0.0074,-0.0126,-0.01,-0.01,-0.0364,-0.0516,-0.0098,-0.0098,-0.0098,-0.0098,0,0.0367,0.0392,0.0476,0.0537,0.0563,0.0628,0.0702,0.0768,0.0803,0.0894,0.0911,0.0877,0.0797,0.062,0.0421,0.0238,-0.0054,0.0004,0.0071,0.0027,-0.0303,-0.0444,-0.0599,-0.0746,-0.009,-0.009,-0.009,0,0.0409,0.0463,0.0553,0.0603,0.0634,0.0721,0.0781,0.0826,0.0895,0.099,0.1042,0.102,0.1011,0.0763,0.0473,0.0222,-0.004,0.0047,-0.0051,-0.0272,-0.0469,-0.0576,-0.0698,-0.0006,-0.0005,-0.0005,-0.0004,0,0.0482,0.0516,0.0579,0.0683,0.0758,0.085,0.0939,0.101,0.1079,0.1167,0.1258,0.1275,0.108,0.0873,0.0546,0.0328,-0.0125,0.0049,-0.0205,-0.0409,-0.0508,-0.069,-0.0054,0.0001,0.0,-0.0,-0.0,-0.0001,0.0523,0.0582,0.0662,0.0759,0.085,0.0964,0.1045,0.1143,0.1269,0.1412,0.1418,0.1506,0.1212,0.0789,0.0461,-0.0077,-0.0135,-0.0271,-0.0417,-0.0499,-0.0661,0.0009,0.0005,0.0005,0.0004,0.0004,0.0004,0,0.0563,0.0628,0.0727,0.0846,0.0949,0.0991,0.1137,0.1227,0.1374,0.154,0.1634,0.1629,0.1198,0.0741,0.0061,-0.0429,-0.0659,-0.0712,-0.0874,-0.0978,-0.0386,-0.0405,-0.0468,-0.0468,-0.0468,-0.0468,-0.0467,-0.0467,0.0587,0.0677,0.0733,0.0899,0.0987,0.1128,0.1212,0.136,0.1508,0.1752,0.19,0.1992,0.1717,0.0366,-0.0636,-0.0902,-0.1322,-0.1363,-0.1618,-0.1232,-0.1203,-0.1175,-0.1229,-0.1464,-0.1465,-0.2144,-0.2151,-0.2156]}],[{"header":{"parameterUnit":"m.s-1","parameterCategory":2,"la1":30.2991,"la2":30.254,"lo1":-89.0895,"lo2":-89.0444,"dy":0.0017,"dx":0.0017,"nx":28,"ny":28,"refTime":"2023-08-12T09:00:00:Z","depth":"2","parameterNumber":2,"parameterNumberName":"U-component_of_CURRENTS"},"data":[0,0,0,0,0,0,0,0,0,0,0,0,0,0,0,0,0,0,0,0,0,0,0,0,0,0,0,0,0,0,0,0,0,0,0,0,0,0,0,0,0,0,0,0,0,0,0,0,0,0,0,0,0,0,0,0,0,0,0.064,0.0641,0,0.0718,0.0719,0.072,0.0722,0.0721,0.0721,0.072,0.0709,0.071,0.071,0,0,0,0,0,0,0,0,0,0,0,0,0,0.0496,0.0499,0.064,0.0641,0.0642,0.0718,0.0719,0.072,0.0722,0.0721,0.072,0.072,0.0709,0.071,0.071,0,0,0,0,0,0,0,0,0,0,0,0,0,0.0564,0.05,0.064,0.0654,0.0656,0.0718,0.0719,0.072,0.0723,0.0721,0.072,0.0719,0.0709,0.0709,0.071,0.0738,0,0,0.0712,0.0713,0,0,0,0,0,0,0,0,0.056,0.0569,0.0651,0.0653,0.0656,0.0711,0.0664,0.0722,0.0723,0.0696,0.072,0.0719,0.0703,0.0704,0.0721,0.0738,0.0737,0.0712,0.0713,0.0713,0.0713,0,0,0,0,0,0,0,0.0555,0.0565,0.0669,0.0652,0.0655,0.0657,0.0665,0.0676,0.0702,0.0698,0.0699,0.071,0.0704,0.072,0.072,0.0737,0.0712,0.0713,0.0713,0.0714,0.0818,0.0821,0,0,0,0,0,0,0.055,0.0561,0.0667,0.0672,0.0605,0.0661,0.067,0.0693,0.0704,0.0706,0.0711,0.071,0.072,0.072,0.072,0.0789,0.0713,0.0714,0.0714,0.0816,0.0819,0.0821,0,0,0,0,0,0,0.0547,0.056,0.0664,0.0618,0.0632,0.0665,0.0691,0.0695,0.0719,0.0716,0.0715,0.0731,0.0719,0.0719,0.0757,0.0786,0.0714,0.0715,0.0813,0.0817,0.082,0.0904,0,0,0,0,0,0,0.0543,0.0558,0.0578,0.0619,0.0635,0.0711,0.0692,0.0698,0.0728,0.0727,0.0732,0.073,0.0718,0.0756,0.0757,0.0786,0.0715,0.081,0.0815,0.0819,0.0898,0.091,0.092,0,0,0,0,0,0.0538,0.0569,0.0579,0.0592,0.066,0.0712,0.0721,0.0738,0.073,0.0752,0.0765,0.073,0.0784,0.0759,0.076,0.0789,0.0808,0.0814,0.0819,0.0893,0.0907,0.0919,0,0,0,0,0,0,0.0513,0.0574,0.0585,0.0632,0.0674,0.0713,0.0738,0.0749,0.0779,0.0777,0.0765,0.0766,0.0811,0.0795,0.0767,0.0835,0.0789,0.0794,0.0845,0.0858,0.0869,0.0883,0.0716,0,0,0,0,0,0.0519,0.056,0.0612,0.0649,0.0673,0.0708,0.0732,0.0748,0.0778,0.079,0.0796,0.0808,0.0836,0.0842,0.086,0.0896,0.0905,0.0916,0.0927,0.0936,0.0951,0.1005,0.1022,0.0839,0.0839,0.0839,0,0,0.0517,0.0558,0.0579,0.0647,0.0679,0.0726,0.0719,0.0766,0.0805,0.0784,0.0836,0.0849,0.0857,0.0906,0.0922,0.0893,0.0996,0.0943,0.095,0.096,0.1012,0.103,0.1046,0.0843,0.0842,0.0841,0,0,0.0533,0.0575,0.0612,0.0655,0.0715,0.0746,0.0762,0.0814,0.0838,0.0895,0.0896,0.0939,0.0962,0.0988,0.1,0.1084,0.1057,0.1077,0.1136,0.1189,0.1204,0.1218,0.126,0.1277,0.1075,0.1075,0.1075,0,0.0523,0.0587,0.063,0.0679,0.0718,0.0756,0.0804,0.0844,0.0901,0.0933,0.0919,0.1003,0.1008,0.108,0.1114,0.1108,0.1128,0.1082,0.1203,0.1216,0.1229,0.1269,0.1287,0.108,0.1079,0.1079,0.1078,0,0.057,0.0623,0.0651,0.0728,0.0775,0.0826,0.0887,0.0934,0.0964,0.1004,0.1084,0.1111,0.1159,0.1169,0.1169,0.1262,0.1245,0.1215,0.1166,0.1252,0.1289,0.1306,0.1086,0.1085,0.1083,0.1082,0,0,0.0543,0.0659,0.0669,0.0713,0.0808,0.085,0.0927,0.1012,0.1062,0.1121,0.1191,0.1261,0.1279,0.1296,0.1303,0.1349,0.1461,0.1325,0.1325,0.1363,0.1579,0.1472,0.1479,0.1449,0.1452,0.1455,0.1572,0,0.0566,0.0657,0.0715,0.0802,0.0856,0.0922,0.099,0.107,0.113,0.1207,0.1263,0.1333,0.1325,0.1357,0.141,0.1447,0.1508,0.1432,0.1495,0.1497,0.1387,0.1496,0.1364,0.1449,0.1588,0.1591,0.1593,0,0.0597,0.0657,0.0744,0.085,0.0879,0.0938,0.1052,0.112,0.1235,0.1283,0.1367,0.1407,0.1512,0.1478,0.1603,0.1554,0.1589,0.1608,0.1612,0.1494,0.142,0.1385,0.1473,0.162,0.1618,0.1616,0.1614,0,0.0567,0.0679,0.0748,0.0787,0.0909,0.0963,0.1032,0.1146,0.1212,0.1344,0.1398,0.151,0.1573,0.1641,0.1686,0.1663,0.1797,0.1763,0.1704,0.1697,0.1587,0.1563,0.1867,0.1867,0.1867,0.1866,0.1866,0,0.0576,0.0632,0.0742,0.0781,0.0866,0.0956,0.1055,0.1135,0.1255,0.1335,0.144,0.1501,0.1619,0.1694,0.1729,0.1764,0.1838,0.1746,0.1731,0.1611,0.159,0.1728,0.1711,0.1871,0.187,0.1869,0.1868,0,0.0541,0.0615,0.0695,0.0816,0.0859,0.092,0.1062,0.1127,0.1246,0.1352,0.1401,0.1535,0.1638,0.1724,0.1834,0.1808,0.1852,0.1842,0.1687,0.165,0.1713,0.1698,0.1818,0.1815,0.1813,0.1811,0.181,0,0.0535,0.0574,0.0697,0.0744,0.0804,0.0908,0.0978,0.1114,0.1179,0.1346,0.1383,0.1529,0.1588,0.1705,0.1717,0.1774,0.1831,0.1664,0.1592,0.1741,0.1714,0.1703,0.1692,0.1499,0.1495,0.1492,0.1489,0,0.0511,0.0554,0.0613,0.0707,0.0787,0.0872,0.0977,0.1016,0.1165,0.1249,0.1345,0.1408,0.1522,0.1526,0.1587,0.1577,0.1641,0.1595,0.1831,0.1501,0.144,0.1413,0.1413,0.146,0.1463,0.1465,0.1467,0.1468,0.0482,0.0509,0.0587,0.0678,0.0757,0.0822,0.0872,0.0955,0.1035,0.1141,0.1218,0.1293,0.1346,0.1371,0.1378,0.1394,0.1461,0.1418,0.1429,0.1443,0.1355,0.129,0.1267,0.1268,0.127,0.1271,0.1272,0,0.0456,0.0502,0.0561,0.0661,0.0718,0.0797,0.0868,0.0878,0.093,0.1042,0.1112,0.1053,0.1081,0.1188,0.1166,0.1153,0.1147,0.1131,0.114,0.1166,0.119,0.1091,0.0932,0.0932,0.0932,0.0932,0,0,0.0448,0.0492,0.053,0.0614,0.0689,0.0757,0.0789,0.0783,0.0836,0.0847,0.092,0.1002,0.1105,0.1008,0.0995,0.0994,0.1074,0.0949,0.1208,0.1241,0.1265,0.1325,0.1196,0,0,0,0,0]},{"header":{"parameterUnit":"m.s-1","parameterCategory":2,"la1":30.2991,"la2":30.254,"lo1":-89.0895,"lo2":-89.0444,"dy":0.0017,"dx":0.0017,"nx":28,"ny":28,"refTime":"2023-08-12T09:00:00:Z","depth":"2","parameterNumber":3,"parameterNumberName":"V-component_of_CURRENTS"},"data":[0,0,0,0,0,0,0,0,0,0,0,0,0,0,0,0,0,0,0,0,0,0,0,0,0,0,0,0,0,0,0,0,0,0,0,0,0,0,0,0,0,0,0,0,0,0,0,0,0,0,0,0,0,0,0,0,0,0,0.0263,0.0263,0,0.0307,0.0308,0.0308,0.0323,0.0323,0.0323,0.0323,0.0262,0.0261,0.0259,0,0,0,0,0,0,0,0,0,0,0,0,0,0.0175,0.0176,0.0262,0.0263,0.0264,0.0307,0.0308,0.0308,0.0323,0.0323,0.0323,0.0323,0.0263,0.0261,0.0259,0,0,0,0,0,0,0,0,0,0,0,0,0,0.0214,0.0177,0.0262,0.0278,0.0279,0.0307,0.0308,0.0308,0.0323,0.0323,0.0323,0.0323,0.0264,0.0261,0.0259,0.0247,0,0,0.0252,0.0251,0,0,0,0,0,0,0,0,0.0212,0.0217,0.0275,0.0277,0.0279,0.0311,0.0255,0.0283,0.0323,0.0305,0.0323,0.0323,0.027,0.0267,0.0275,0.0244,0.0241,0.0252,0.025,0.0249,0.0249,0,0,0,0,0,0,0,0.0209,0.0216,0.0279,0.0275,0.0278,0.0277,0.0282,0.026,0.0285,0.0307,0.0309,0.0315,0.027,0.0278,0.0274,0.024,0.0252,0.025,0.0248,0.0247,0.0142,0.0141,0,0,0,0,0,0,0.0208,0.0213,0.0278,0.028,0.0246,0.0279,0.0285,0.03,0.0287,0.0287,0.0316,0.0316,0.0282,0.0276,0.0271,0.0234,0.0249,0.0247,0.0246,0.0143,0.0142,0.014,0,0,0,0,0,0,0.0206,0.0213,0.0276,0.0248,0.0256,0.0281,0.0297,0.0301,0.031,0.0295,0.0292,0.0321,0.0281,0.0275,0.0252,0.0232,0.0246,0.0244,0.0145,0.0143,0.0141,0.0172,0,0,0,0,0,0,0.0203,0.0212,0.0225,0.0248,0.0258,0.0295,0.0297,0.0302,0.0315,0.0316,0.0298,0.0293,0.0281,0.0255,0.0249,0.0229,0.0242,0.0147,0.0144,0.0142,0.0173,0.0171,0.017,0,0,0,0,0,0.02,0.0222,0.0225,0.0233,0.0273,0.0296,0.0301,0.0316,0.0315,0.0322,0.0307,0.0294,0.0233,0.0253,0.0246,0.0225,0.0148,0.0145,0.0142,0.0173,0.0171,0.017,0,0,0,0,0,0,0.0202,0.0227,0.023,0.0262,0.0276,0.0299,0.0313,0.0316,0.0313,0.031,0.029,0.0284,0.0253,0.023,0.0253,0.0182,0.0182,0.0177,0.0208,0.0206,0.0205,0.021,0.024,0,0,0,0,0,0.0205,0.0223,0.0243,0.0269,0.0276,0.0291,0.0303,0.0311,0.0312,0.0312,0.0297,0.0267,0.0234,0.0216,0.0191,0.016,0.0119,0.0133,0.0132,0.0131,0.0127,0.0042,0.0033,0.013,0.013,0.013,0,0,0.0214,0.023,0.0242,0.0269,0.0283,0.0297,0.0298,0.0318,0.0321,0.0302,0.0297,0.0268,0.0225,0.0194,0.0175,0.0173,0.0084,0.0127,0.0127,0.0124,0.0038,0.0028,0.002,0.0128,0.0128,0.0128,0,0,0.024,0.0254,0.0274,0.0283,0.0301,0.0307,0.0311,0.0326,0.0324,0.0316,0.0291,0.0253,0.0219,0.018,0.0155,0.0124,0.0083,0.0107,0.0103,0.002,0.0012,0.0004,-0.0046,-0.0059,0.0102,0.0102,0.0102,0,0.025,0.0277,0.0284,0.03,0.0309,0.031,0.0326,0.0324,0.0327,0.0313,0.0315,0.0239,0.0209,0.0148,0.0138,0.0122,0.0078,0.0121,0.002,0.0011,0.0002,-0.0048,-0.0062,0.0103,0.0103,0.0103,0.0103,0,0.0285,0.0303,0.0315,0.0331,0.0339,0.0355,0.035,0.0346,0.0338,0.0326,0.0277,0.0236,0.0184,0.0161,0.0144,0.0061,0.0051,0.0035,0.0032,-0.0005,-0.0056,-0.0071,0.0105,0.0104,0.0104,0.0104,0,0,0.031,0.0335,0.0337,0.0345,0.0354,0.0365,0.0359,0.0348,0.0336,0.0311,0.028,0.0215,0.0184,0.015,0.0111,0.0042,-0.0049,0.0014,0.0009,-0.0022,-0.0218,-0.0182,-0.0196,-0.0087,-0.009,-0.0092,-0.0223,0,0.0332,0.0365,0.0369,0.039,0.0403,0.0392,0.0387,0.037,0.0348,0.0317,0.0249,0.0208,0.018,0.0151,0.0075,-0.0014,-0.0092,-0.0011,-0.019,-0.0195,-0.0148,-0.0213,-0.0233,-0.0349,-0.0238,-0.0241,-0.0243,0,0.0356,0.0375,0.04,0.0411,0.0416,0.0422,0.0403,0.0401,0.0348,0.0326,0.0264,0.0218,0.012,0.0101,-0.0081,-0.003,-0.0128,-0.0197,-0.0205,-0.0194,-0.0189,-0.03,-0.0381,-0.0269,-0.0267,-0.0265,-0.0263,0,0.0358,0.039,0.0408,0.0413,0.0427,0.0426,0.0428,0.0397,0.0391,0.0325,0.0311,0.0192,0.014,-0.0007,-0.0126,-0.0126,-0.0316,-0.0337,-0.04,-0.0397,-0.0461,-0.0458,-0.049,-0.049,-0.049,-0.049,-0.0489,0,0.0373,0.0386,0.041,0.0418,0.0434,0.0437,0.0437,0.0423,0.0398,0.0392,0.0312,0.0286,0.0106,-0.0004,-0.0138,-0.0297,-0.0334,-0.0415,-0.0441,-0.0447,-0.0442,-0.0409,-0.0398,-0.0495,-0.0493,-0.0492,-0.0492,0,0.0373,0.0387,0.041,0.043,0.0436,0.0446,0.0463,0.0467,0.0441,0.0431,0.0413,0.0329,0.0193,0.0033,-0.019,-0.0295,-0.0458,-0.0508,-0.0476,-0.0495,-0.0488,-0.0474,-0.0624,-0.0624,-0.0624,-0.0624,-0.0625,0,0.0384,0.0396,0.0419,0.0437,0.0449,0.0466,0.0483,0.0481,0.0496,0.0471,0.0474,0.0359,0.0285,0.0005,-0.0216,-0.0451,-0.0456,-0.0595,-0.0605,-0.0498,-0.0508,-0.0494,-0.048,-0.0684,-0.0684,-0.0685,-0.0685,0,0.0411,0.041,0.0429,0.0461,0.0486,0.0519,0.0549,0.0559,0.0564,0.0563,0.0559,0.0499,0.0253,-0.0001,-0.0289,-0.0432,-0.0558,-0.0609,-0.0557,-0.0616,-0.0557,-0.0565,-0.055,-0.0689,-0.0689,-0.0688,-0.0688,-0.0688,0.0434,0.0447,0.0468,0.0498,0.0534,0.0577,0.0612,0.0647,0.0675,0.0677,0.0612,0.0509,0.0218,-0.0181,-0.0388,-0.0578,-0.0584,-0.0682,-0.0681,-0.068,-0.0632,-0.0574,-0.07,-0.0699,-0.0699,-0.0699,-0.0699,0,0.0469,0.0483,0.0513,0.0556,0.0602,0.0623,0.0671,0.0699,0.0751,0.0703,0.0678,0.0332,0.0062,-0.0195,-0.0507,-0.0698,-0.071,-0.0727,-0.0736,-0.0732,-0.0729,-0.0683,-0.0765,-0.0765,-0.0765,-0.0765,0,0,0.0492,0.0518,0.0527,0.061,0.0657,0.0748,0.0786,0.0813,0.0786,0.0679,0.0579,0.0419,0.0063,-0.0192,-0.0457,-0.0599,-0.06,-0.0608,-0.0547,-0.0525,-0.0518,-0.0708,-0.0634,0,0,0,0,0]}],[{"header":{"parameterUnit":"m.s-1","parameterCategory":2,"la1":30.2991,"la2":30.254,"lo1":-89.0895,"lo2":-89.0444,"dy":0.0017,"dx":0.0017,"nx":28,"ny":28,"refTime":"2023-08-12T09:00:00:Z","depth":"4","parameterNumber":2,"parameterNumberName":"U-component_of_CURRENTS"},"data":[0,0,0,0,0,0,0,0,0,0,0,0,0,0,0,0,0,0,0,0,0,0,0,0,0,0,0,0,0,0,0,0,0,0,0,0,0,0,0,0,0,0,0,0,0,0,0,0,0,0,0,0,0,0,0,0,0,0,0.0315,0.0316,0,0.0344,0.0344,0.0344,0.0369,0.0369,0.0369,0.037,0.0384,0.0384,0.0384,0,0,0,0,0,0,0,0,0,0,0,0,0,0.0267,0.0268,0.0315,0.0316,0.0316,0.0344,0.0344,0.0344,0.0369,0.0369,0.037,0.037,0.0384,0.0384,0.0384,0,0,0,0,0,0,0,0,0,0,0,0,0,0.029,0.0268,0.0315,0.0333,0.0335,0.0344,0.0344,0.0344,0.0368,0.0369,0.037,0.037,0.0384,0.0384,0.0384,0.037,0,0,0.0383,0.0383,0,0,0,0,0,0,0,0,0.0288,0.0291,0.033,0.0332,0.0334,0.0355,0.0332,0.0353,0.0368,0.0354,0.037,0.0371,0.0373,0.0374,0.0376,0.0371,0.0371,0.0383,0.0383,0.0383,0.0383,0,0,0,0,0,0,0,0.0287,0.029,0.0325,0.033,0.0333,0.0335,0.0339,0.0336,0.0358,0.0355,0.0357,0.0363,0.0374,0.0376,0.0376,0.0372,0.0383,0.0383,0.0383,0.0383,0.0352,0.0351,0,0,0,0,0,0,0.0287,0.0289,0.0324,0.0326,0.0314,0.0336,0.034,0.0346,0.0358,0.0361,0.0363,0.0364,0.0376,0.0376,0.0377,0.0377,0.0383,0.0383,0.0383,0.0353,0.0352,0.0351,0,0,0,0,0,0,0.0286,0.029,0.0323,0.0309,0.0314,0.0336,0.0343,0.0346,0.036,0.0365,0.0367,0.0375,0.0376,0.0377,0.0378,0.0377,0.0383,0.0383,0.0354,0.0353,0.0352,0.0368,0,0,0,0,0,0,0.0284,0.0289,0.0295,0.0309,0.0315,0.0336,0.0343,0.0347,0.0363,0.0366,0.0375,0.0377,0.0377,0.0378,0.0377,0.0377,0.0383,0.0355,0.0353,0.0352,0.0368,0.0367,0.0366,0,0,0,0,0,0.0283,0.0288,0.0295,0.0299,0.0321,0.0336,0.0339,0.0356,0.0363,0.037,0.0371,0.0377,0.0368,0.0377,0.0377,0.0377,0.0356,0.0354,0.0352,0.0368,0.0367,0.0366,0,0,0,0,0,0,0.0268,0.0291,0.03,0.0311,0.0327,0.0342,0.035,0.036,0.0367,0.037,0.0372,0.0373,0.0371,0.0367,0.0377,0.036,0.036,0.0358,0.0372,0.0371,0.037,0.0387,0.0383,0,0,0,0,0,0.0267,0.0279,0.0299,0.0309,0.0319,0.0335,0.0344,0.0356,0.0364,0.0369,0.0375,0.037,0.036,0.0362,0.0355,0.0351,0.0355,0.0346,0.0346,0.0345,0.0356,0.0348,0.0348,0.0345,0.0345,0.0345,0,0,0.0262,0.0278,0.0284,0.0307,0.032,0.0334,0.0342,0.036,0.0369,0.0367,0.0379,0.0371,0.0357,0.0351,0.0349,0.0352,0.0349,0.0343,0.0343,0.0354,0.0346,0.0347,0.0347,0.0344,0.0344,0.0345,0,0,0.0261,0.0276,0.0287,0.0303,0.0328,0.0337,0.0345,0.0365,0.0374,0.0381,0.0374,0.0367,0.0363,0.0352,0.0344,0.0332,0.0342,0.0325,0.0341,0.0333,0.0333,0.0334,0.035,0.0352,0.0328,0.0328,0.0328,0,0.0256,0.0275,0.0292,0.031,0.0322,0.034,0.0354,0.0363,0.0379,0.0383,0.0387,0.0371,0.0362,0.0348,0.0343,0.0332,0.0339,0.035,0.0334,0.0335,0.0335,0.0351,0.0353,0.0328,0.0328,0.0328,0.0328,0,0.0266,0.0284,0.0292,0.032,0.0332,0.0348,0.0364,0.0376,0.0387,0.0395,0.0392,0.0378,0.0371,0.0358,0.0352,0.0344,0.0352,0.0334,0.0343,0.0337,0.0354,0.0356,0.0329,0.0329,0.0329,0.0328,0,0,0.0248,0.0291,0.0295,0.0312,0.0341,0.0352,0.0366,0.0382,0.0393,0.0401,0.041,0.0388,0.039,0.038,0.0365,0.0358,0.0368,0.0355,0.0354,0.0384,0.0373,0.0416,0.0423,0.035,0.035,0.035,0.0388,0,0.0253,0.0285,0.0303,0.0329,0.0347,0.0365,0.0375,0.0391,0.0402,0.0415,0.0404,0.0404,0.0395,0.0392,0.0385,0.037,0.0372,0.0361,0.0364,0.0365,0.0414,0.0426,0.0351,0.0389,0.039,0.039,0.039,0,0.0257,0.0281,0.0306,0.0341,0.035,0.0363,0.0385,0.0399,0.0415,0.0425,0.043,0.0428,0.0426,0.0411,0.0406,0.0403,0.0396,0.0385,0.0385,0.0424,0.0412,0.0392,0.0394,0.0394,0.0393,0.0393,0.0393,0,0.024,0.0282,0.0302,0.0314,0.0352,0.0363,0.0381,0.0401,0.0413,0.0435,0.0447,0.0447,0.0452,0.044,0.0441,0.0421,0.0443,0.0405,0.0439,0.0443,0.0386,0.0385,0.0401,0.0401,0.0401,0.04,0.04,0,0.0237,0.0254,0.0297,0.0309,0.0329,0.0359,0.0377,0.0396,0.0421,0.0438,0.0453,0.0466,0.0459,0.0474,0.046,0.048,0.0461,0.0458,0.0456,0.0392,0.0391,0.0388,0.0387,0.0402,0.0402,0.0401,0.0401,0,0.0213,0.0243,0.0267,0.0309,0.0322,0.0335,0.0375,0.0387,0.042,0.0443,0.0453,0.0486,0.0517,0.0527,0.0521,0.0514,0.0516,0.0523,0.0491,0.0484,0.0514,0.0512,0.0556,0.0558,0.0559,0.056,0.0562,0,0.0205,0.0215,0.0258,0.0272,0.0292,0.032,0.0336,0.0377,0.0396,0.0453,0.0462,0.0513,0.0535,0.0573,0.0579,0.0593,0.0578,0.0584,0.0517,0.0536,0.053,0.0525,0.0522,0.0564,0.0565,0.0565,0.0565,0,0.0181,0.0195,0.0213,0.0247,0.0269,0.0294,0.0328,0.0343,0.0395,0.0422,0.0472,0.0508,0.056,0.0583,0.0624,0.0615,0.0581,0.06,0.0595,0.0531,0.0547,0.0538,0.0532,0.0571,0.057,0.057,0.0569,0,0.0155,0.016,0.0189,0.0216,0.0246,0.0275,0.0294,0.0335,0.0364,0.0434,0.0449,0.0511,0.0549,0.0597,0.0621,0.0647,0.0619,0.0585,0.058,0.0574,0.0568,0.0589,0.0638,0,0,0,0,0,0.0127,0.0138,0.0161,0.0198,0.0231,0.0254,0.0294,0.0317,0.0367,0.0397,0.0428,0.0477,0.0544,0.0575,0.0604,0.0631,0.062,0.0665,0.0576,0.0601,0.0595,0.0588,0,0,0,0,0,0,0.0111,0.0128,0.0149,0.0183,0.0209,0.0245,0.0272,0.0305,0.0332,0.0383,0.0418,0.0462,0.0526,0.052,0.0595,0.0609,0.055,0.0706,0.0706,0.0605,0.0599,0.0594,0.0584,0,0,0,0,0]},{"header":{"parameterUnit":"m.s-1","parameterCategory":2,"la1":30.2991,"la2":30.254,"lo1":-89.0895,"lo2":-89.0444,"dy":0.0017,"dx":0.0017,"nx":28,"ny":28,"refTime":"2023-08-12T09:00:00:Z","depth":"4","parameterNumber":3,"parameterNumberName":"V-component_of_CURRENTS"},"data":[0,0,0,0,0,0,0,0,0,0,0,0,0,0,0,0,0,0,0,0,0,0,0,0,0,0,0,0,0,0,0,0,0,0,0,0,0,0,0,0,0,0,0,0,0,0,0,0,0,0,0,0,0,0,0,0,0,0,-0.0341,-0.0342,0,-0.0385,-0.0385,-0.0386,-0.04,-0.04,-0.04,-0.0399,-0.0453,-0.0454,-0.0456,0,0,0,0,0,0,0,0,0,0,0,0,0,-0.0301,-0.0302,-0.0341,-0.0342,-0.0342,-0.0385,-0.0385,-0.0386,-0.04,-0.04,-0.04,-0.0399,-0.0452,-0.0454,-0.0456,0,0,0,0,0,0,0,0,0,0,0,0,0,-0.0329,-0.0302,-0.0341,-0.0354,-0.0356,-0.0384,-0.0385,-0.0386,-0.04,-0.04,-0.0399,-0.0399,-0.0452,-0.0454,-0.0456,-0.0477,0,0,-0.0464,-0.0465,0,0,0,0,0,0,0,0,-0.0327,-0.033,-0.0352,-0.0354,-0.0355,-0.0387,-0.0391,-0.0417,-0.04,-0.0383,-0.0399,-0.0399,-0.0432,-0.0436,-0.0445,-0.048,-0.0482,-0.0464,-0.0466,-0.0467,-0.0467,0,0,0,0,0,0,0,-0.0325,-0.0329,-0.0358,-0.0353,-0.0355,-0.0369,-0.0372,-0.0396,-0.0409,-0.0385,-0.0386,-0.0391,-0.0433,-0.0442,-0.0446,-0.0483,-0.0464,-0.0466,-0.0468,-0.0469,-0.0573,-0.0575,0,0,0,0,0,0,-0.0319,-0.0327,-0.0357,-0.036,-0.034,-0.037,-0.0373,-0.0377,-0.0408,-0.0413,-0.0391,-0.0391,-0.0438,-0.0443,-0.0448,-0.0505,-0.0467,-0.0469,-0.047,-0.0572,-0.0574,-0.0575,0,0,0,0,0,0,-0.0318,-0.0321,-0.0355,-0.0344,-0.035,-0.037,-0.0374,-0.0378,-0.04,-0.0413,-0.0418,-0.0411,-0.0438,-0.0445,-0.0486,-0.0506,-0.047,-0.0472,-0.0571,-0.0573,-0.0574,-0.06,0,0,0,0,0,0,-0.0316,-0.032,-0.0332,-0.0344,-0.035,-0.0381,-0.0375,-0.0379,-0.0403,-0.0404,-0.0432,-0.0435,-0.0439,-0.0482,-0.0488,-0.0509,-0.0474,-0.0569,-0.0571,-0.0574,-0.0597,-0.0602,-0.0607,0,0,0,0,0,-0.0315,-0.033,-0.0332,-0.0337,-0.0362,-0.0382,-0.0387,-0.0401,-0.0404,-0.0419,-0.0441,-0.0435,-0.0502,-0.0486,-0.0492,-0.0514,-0.0568,-0.0571,-0.0574,-0.0595,-0.0601,-0.0607,0,0,0,0,0,0,-0.0326,-0.0333,-0.0336,-0.0355,-0.0371,-0.0385,-0.0405,-0.0411,-0.0441,-0.0447,-0.0456,-0.0462,-0.0506,-0.051,-0.0492,-0.0552,-0.0533,-0.0538,-0.0547,-0.0553,-0.0558,-0.0541,-0.0476,0,0,0,0,0,-0.0332,-0.0343,-0.0353,-0.0372,-0.038,-0.0396,-0.041,-0.0418,-0.0439,-0.0452,-0.0473,-0.0497,-0.0522,-0.0538,-0.0562,-0.0597,-0.059,-0.0615,-0.062,-0.0624,-0.0616,-0.0626,-0.063,-0.0585,-0.0585,-0.0585,0,0,-0.0342,-0.0349,-0.0357,-0.0375,-0.0391,-0.0404,-0.0405,-0.0431,-0.0445,-0.0455,-0.0494,-0.0519,-0.0537,-0.0576,-0.0595,-0.0583,-0.0636,-0.0628,-0.0631,-0.0621,-0.0629,-0.0633,-0.0637,-0.0587,-0.0587,-0.0587,0,0,-0.0361,-0.0376,-0.0386,-0.0399,-0.042,-0.0428,-0.0437,-0.0461,-0.0476,-0.0514,-0.0526,-0.0559,-0.0603,-0.0615,-0.0626,-0.0672,-0.0663,-0.0689,-0.0698,-0.0708,-0.0711,-0.0713,-0.0716,-0.0719,-0.0688,-0.0688,-0.0689,0,-0.0375,-0.0384,-0.0396,-0.0408,-0.0419,-0.0438,-0.045,-0.047,-0.0506,-0.052,-0.0531,-0.0595,-0.0615,-0.0647,-0.0667,-0.0681,-0.0685,-0.0672,-0.0712,-0.0714,-0.0716,-0.0718,-0.0721,-0.069,-0.069,-0.069,-0.069,0,-0.0391,-0.0404,-0.0416,-0.043,-0.0446,-0.0465,-0.0482,-0.0509,-0.0532,-0.0547,-0.0595,-0.0627,-0.0657,-0.0678,-0.0689,-0.0721,-0.072,-0.0718,-0.0691,-0.0722,-0.0723,-0.0725,-0.0692,-0.0692,-0.0691,-0.0691,0,0,-0.0401,-0.042,-0.0425,-0.0429,-0.0457,-0.0468,-0.0498,-0.0521,-0.0536,-0.0582,-0.0602,-0.0659,-0.0677,-0.069,-0.0713,-0.0728,-0.0757,-0.0735,-0.0735,-0.0727,-0.078,-0.0736,-0.0733,-0.0766,-0.0766,-0.0767,-0.0776,0,-0.0409,-0.0422,-0.0434,-0.0453,-0.046,-0.0482,-0.0503,-0.053,-0.0558,-0.0586,-0.0621,-0.0654,-0.068,-0.07,-0.0723,-0.0747,-0.0763,-0.0754,-0.076,-0.076,-0.0708,-0.0734,-0.0768,-0.0777,-0.0778,-0.0778,-0.0778,0,-0.0414,-0.042,-0.0434,-0.0449,-0.0455,-0.0471,-0.0498,-0.052,-0.0559,-0.0581,-0.0619,-0.0646,-0.0686,-0.07,-0.0747,-0.0744,-0.0766,-0.0781,-0.0781,-0.0728,-0.0719,-0.074,-0.0782,-0.0781,-0.0781,-0.0781,-0.0781,0,-0.0397,-0.0418,-0.0425,-0.0432,-0.0455,-0.0469,-0.0487,-0.0522,-0.0534,-0.0578,-0.0587,-0.064,-0.0658,-0.0701,-0.074,-0.075,-0.0779,-0.0789,-0.0767,-0.0764,-0.0787,-0.0784,-0.0815,-0.0815,-0.0815,-0.0815,-0.0815,0,-0.0389,-0.0397,-0.0418,-0.0422,-0.043,-0.0456,-0.0471,-0.0495,-0.0523,-0.0527,-0.0583,-0.0588,-0.0661,-0.0688,-0.0732,-0.0749,-0.0771,-0.0766,-0.0763,-0.08,-0.0799,-0.0789,-0.0786,-0.0816,-0.0816,-0.0816,-0.0815,0,-0.037,-0.0385,-0.039,-0.0413,-0.0421,-0.0429,-0.0453,-0.046,-0.049,-0.0494,-0.0505,-0.0549,-0.0579,-0.0638,-0.0693,-0.0719,-0.075,-0.075,-0.0778,-0.0777,-0.0733,-0.0731,-0.0729,-0.0728,-0.0726,-0.0725,-0.0724,0,-0.0359,-0.0362,-0.0378,-0.0379,-0.0392,-0.0406,-0.0413,-0.0443,-0.0445,-0.046,-0.0454,-0.0484,-0.0514,-0.0545,-0.0624,-0.0692,-0.0701,-0.0721,-0.0741,-0.0726,-0.0724,-0.0724,-0.0724,-0.0722,-0.0722,-0.0722,-0.0721,0,-0.0339,-0.0349,-0.0351,-0.0352,-0.0358,-0.0363,-0.0374,-0.0366,-0.0388,-0.0407,-0.0385,-0.0416,-0.044,-0.0503,-0.0552,-0.0607,-0.0715,-0.0709,-0.0712,-0.073,-0.0718,-0.0717,-0.0719,-0.0717,-0.0718,-0.0718,-0.0718,0,-0.0324,-0.0318,-0.0323,-0.0321,-0.0327,-0.0323,-0.0331,-0.0323,-0.0324,-0.0333,-0.032,-0.0361,-0.0395,-0.0457,-0.0506,-0.0552,-0.057,-0.0593,-0.0603,-0.0609,-0.0576,-0.0543,-0.0482,0,0,0,0,0,-0.031,-0.03,-0.0293,-0.0289,-0.0294,-0.0302,-0.0306,-0.0314,-0.0321,-0.0285,-0.03,-0.0315,-0.0371,-0.0408,-0.0441,-0.0506,-0.06,-0.0549,-0.0636,-0.0693,-0.0698,-0.0676,0,0,0,0,0,0,-0.0298,-0.0291,-0.0283,-0.0267,-0.0263,-0.0267,-0.0271,-0.0276,-0.0258,-0.0265,-0.0289,-0.0312,-0.0372,-0.0338,-0.0433,-0.0452,-0.0511,-0.0585,-0.0585,-0.069,-0.0694,-0.0698,-0.0678,0,0,0,0,0]}]]